Regional Weather Roundup
Issued by NWS

Home | Current Version | Previous Version | Text Only | Print | Product List | Glossary Off
Versions: 1 2 3 4 5 6 7 8 9 10 11 12 13 14 15 16 17 18 19 20 21 22 23 24 25 26 27 28 29 30 31 32 33 34 35 36 37 38 39 40 41 42 43 44 45 46 47 48 49 50

000
ASUS43 KOAX 291302
RWRNE

WEATHER ROUNDUP FOR NEBRASKA
NATIONAL WEATHER SERVICE OMAHA NE
800 AM CDT WED MAR 29 2017

NOTES: SATELLITE DATA IS BEING USED TO AUGMENT CLOUD COVER ABOVE
       12000 FEET.
       "FAIR" INDICATES FEW OR NO CLOUDS BELOW 12,000 FEET WITH NO
       SIGNIFICANT WEATHER AND/OR OBSTRUCTIONS TO VISIBILITY.

  * THESE STATIONS DO NOT REPORT WEATHER SUCH AS RAIN...SNOW OR FOG.

NEZ001>004-019>022-054>056-291400-
NEBRASKA PANHANDLE

CITY           SKY/WX    TMP DP  RH WIND       PRES   REMARKS
SCOTTSBLUFF    CLOUDY    39  37  92 NW3       30.12R
ALLIANCE       CLOUDY    38  37  97 N6        30.10S WCI  33
CHADRON        CLOUDY    40  37  89 CALM      30.12S
KIMBALL        CLOUDY    37  37 100 N10       30.09R WCI  30
SIDNEY         CLOUDY    37  35  92 N9        30.08S WCI  30
$$

NEZ057>060-069>072-079>082-291400-
SOUTHWEST NEBRASKA

CITY           SKY/WX    TMP DP  RH WIND       PRES   REMARKS
NORTH PLATTE   CLOUDY    43  40  89 N14       30.03F
IMPERIAL       CLOUDY    41  39  93 N16       30.04R
LEXINGTON      CLOUDY    43  41  92 NE15      30.01R
MCCOOK         CLOUDY    43  41  93 NE16      29.98S
OGALLALA       CLOUDY    42  40  93 N10       30.06S
$$

NEZ005>010-023>029-035>040-094-291400-
NORTH CENTRAL NEBRASKA

CITY           SKY/WX    TMP DP  RH WIND       PRES   REMARKS
VALENTINE      CLOUDY    41  39  93 N6        30.11F
AINSWORTH      DRIZZLE   41  41 100 N5        30.10S
BROKEN BOW     LGT RAIN  44  41  89 NE13      30.03S
O`NEILL        CLOUDY    44  43  97 N7        30.09S
ORD            CLOUDY    44  41  89 NE9       30.03S FOG
THEDFORD       DRIZZLE   42  41  96 N9        30.09S
$$

NEZ041-046>049-061>064-073>077-083>087-291400-
SOUTH CENTRAL NEBRASKA

CITY           SKY/WX    TMP DP  RH WIND       PRES   REMARKS
GRAND ISLAND   LGT RAIN  43  43 100 NE14      30.01R FOG
AURORA         DRIZZLE   43  43 100 NE15      30.00R
HASTINGS       LGT RAIN  44  42  93 NE18      29.99R FOG
HEBRON         LGT RAIN  45  44  97 NE16      29.94S
HOLDREGE       CLOUDY    42  41  95 N17       29.98S
KEARNEY *      CLOUDY    43  39  87 N16       30.00R
YORK           LGT RAIN  45  45 100 NE14      30.00R
$$

NEZ011>018-030>034-042>045-291400-
NORTHEAST NEBRASKA

CITY           SKY/WX    TMP DP  RH WIND       PRES   REMARKS
NORFOLK        LGT RAIN  43  41  93 NE13      30.05F FOG
ALBION         MIX PCPN  45  42  89 NE10G18   30.03F
BLAIR          DRIZZLE   45  43  95 NE13      30.01F
FREMONT        LGT RAIN  45  45  99 NE9G16    30.04S
TEKAMAH        LGT RAIN  45  43  93 NE10      30.06R
WAYNE          LGT RAIN  44  44  99 NE10      30.08S
$$

NEZ050>053-065>068-078-088>093-291400-
SOUTHEAST NEBRASKA

CITY           SKY/WX    TMP DP  RH WIND       PRES   REMARKS
LINCOLN        LGT RAIN  46  44  93 NE16      30.00S
OMAHA EPPLEY   LGT RAIN  46  41  82 NE16      30.02S
BEATRICE       LGT RAIN  46  46  99 NE13      29.94R
FALLS CITY     LGT RAIN  47  46  97 NE16G24   29.90F
NEBRASKA CITY  LGT RAIN  45  45 100 E15       29.97R
PLATTSMOUTH    DRIZZLE   46  43  90 NE10      29.99S
$$

NEZ044-045-051>053-067-291400-
OMAHA AREA

CITY           SKY/WX    TMP DP  RH WIND       PRES   REMARKS
OMAHA EPPLEY   LGT RAIN  46  41  82 NE16      30.02S
BLAIR          DRIZZLE   45  43  95 NE13      30.01F
FREMONT        LGT RAIN  45  45  99 NE9G16    30.04S
MILLARD        LGT RAIN  48  46  90 NE9       30.01S
OFFUTT AFB     LGT RAIN  46  44  92 NE10G18   29.99F
PLATTSMOUTH    DRIZZLE   46  43  90 NE10      29.99S
WAHOO          LGT RAIN  45  44  95 NE14      30.01F
$$




USA.gov is the U.S. government's official web portal to all federal, state and local government web resources and services.